Tracking 29594 objects as of 20-Sep-2024
HD Live streaming from Space Station
objects crossing your sky now

STARLINK-6079

Track STARLINK-6079 now!
10-day predictions
STARLINK-6079 is classified as:


NORAD ID: 56120
Int'l Code: 2023-046AD
Perigee: 565.7 km
Apogee: 566.8 km
Inclination: 43.0 °
Period: 95.8 minutes
Semi major axis: 6937 km
RCS: Unknown
Launch date: March 29, 2023
Source: United States (US)
Launch site: AIR FORCE EASTERN TEST RANGE (AFETR)
Your satellite tracking list
Your tracking list is empty




NASA's NSSDC Master Catalog

Two Line Element Set (TLE):
1 56120U 23046AD  24264.45735280  .00003617  00000-0  28269-3 0  9998
2 56120  42.9998 174.7453 0000783 340.5023  19.5789 15.02529780 81695
Source of the keplerian elements: AFSPC